GW2940 Weather Reports


time (UTC)temp
C
wind
direction
speed
KPH
gust
KPH
rain 1hr
cm
rain 24hr
cm
rain mn
cm
humidity
%
barometer
mb
20260906083050 20 0 0.0 0.0 0.00 0.00 0.00 92 1012.1
20260906082538 21 0 0.0 0.0 0.00 0.00 0.00 93 1012.0
20260906082038 21 0 0.0 0.0 0.00 0.00 0.00 92 1012.1
20260906081551 21 0 0.0 0.0 0.00 0.00 0.00 92 1012.0
20260906081041 21 0 0.0 0.0 0.00 0.00 0.00 92 1012.0
20260906080538 21 0 0.0 0.0 0.00 0.00 0.00 92 1012.0
20260906080056 21 0 0.0 0.0 0.00 0.00 0.00 92 1011.9
20260906075538 21 0 0.0 0.0 0.00 0.00 0.00 92 1011.8
20260906075038 21 0 0.0 0.0 0.00 0.00 0.00 92 1011.8
20260906074556 21 0 0.0 0.0 0.00 0.00 0.00 92 1011.8
20260906074039 21 0 0.0 0.0 0.00 0.00 0.00 92 1011.8
20260906073537 21 0 0.0 0.0 0.00 0.00 0.00 91 1011.8
20260906073049 21 0 0.0 0.0 0.00 0.00 0.00 91 1011.8
20260906072538 21 0 0.0 0.0 0.00 0.00 0.00 92 1011.8
20260906072038 21 0 0.0 0.0 0.00 0.00 0.00 92 1011.7
20260906071605 21 0 0.0 0.0 0.00 0.00 0.00 92 1011.8
20260906071038 21 0 0.0 0.0 0.00 0.00 0.00 92 1011.7
20260906070539 21 0 0.0 0.0 0.00 0.00 0.00 91 1011.9
20260906070052 21 0 0.0 0.0 0.00 0.00 0.00 91 1012.0
20260906065541 21 0 0.0 0.0 0.00 0.00 0.00 91 1012.0
20260906065040 21 0 0.0 0.0 0.00 0.00 0.00 91 1012.0
20260906064557 21 0 0.0 1.6 0.00 0.00 0.00 91 1011.8
20260906064041 21 0 0.0 1.6 0.00 0.00 0.00 91 1011.9
20260906063539 21 0 0.0 1.6 0.00 0.00 0.00 91 1011.9
20260906063101 21 0 0.0 1.6 0.00 0.00 0.00 91 1012.0
20260906062538 21 0 0.0 1.6 0.00 0.00 0.00 90 1012.0
20260906062042 21 0 0.0 0.0 0.00 0.00 0.00 90 1012.1
20260906061554 21 0 0.0 0.0 0.00 0.00 0.00 90 1012.3
20260906061037 21 0 0.0 0.0 0.00 0.00 0.00 90 1012.3
20260906060537 21 0 0.0 0.0 0.00 0.00 0.00 90 1012.2
20260906060053 21 0 0.0 0.0 0.00 0.00 0.00 90 1012.2
20260906055538 21 0 0.0 0.0 0.00 0.00 0.00 90 1012.2
20260906055039 22 0 0.0 0.0 0.00 0.00 0.00 90 1012.5
20260906054558 22 0 0.0 0.0 0.00 0.00 0.00 90 1012.5
20260906054038 22 0 0.0 0.0 0.00 0.00 0.00 89 1012.4
20260906053537 22 0 0.0 0.0 0.00 0.00 0.00 89 1012.7
20260906053054 22 0 0.0 0.0 0.00 0.00 0.00 89 1012.8
20260906052538 22 0 0.0 0.0 0.00 0.00 0.00 89 1012.6
20260906052039 22 0 0.0 0.0 0.00 0.00 0.00 88 1012.6
20260906051555 22 0 0.0 0.0 0.00 0.00 0.00 88 1012.7
20260906051038 22 0 0.0 0.0 0.00 0.00 0.00 88 1012.8
20260906050542 22 0 0.0 0.0 0.00 0.00 0.00 88 1012.7
20260906050113 22 0 0.0 0.0 0.00 0.00 0.00 88 1012.7
20260906045537 22 0 0.0 0.0 0.00 0.00 0.00 88 1012.5
20260906045038 22 0 0.0 0.0 0.00 0.00 0.00 88 1012.6
20260906044557 22 0 0.0 1.6 0.00 0.00 0.00 88 1012.7
20260906044038 22 0 0.0 1.6 0.00 0.00 0.00 88 1012.8
20260906043538 22 0 0.0 0.0 0.00 0.00 0.00 88 1012.7
20260906043105 22 0 0.0 0.0 0.00 0.00 0.00 88 1012.7
20260906042538 22 0 0.0 0.0 0.00 0.00 0.00 88 1012.8
20260906042039 22 0 0.0 1.6 0.00 0.00 0.00 88 1012.9
20260906041551 22 0 0.0 1.6 0.00 0.00 0.00 88 1012.7
20260906041037 22 0 0.0 3.2 0.00 0.00 0.00 88 1012.9
20260906040538 22 0 0.0 3.2 0.00 0.00 0.00 88 1012.8
20260906040059 22 0 0.0 3.2 0.00 0.00 0.00 88 1012.9
20260906035539 22 0 0.0 3.2 0.00 0.00 0.00 88 1012.8
20260906035039 22 0 0.0 3.2 0.00 0.00 0.00 88 1012.7
20260906034554 22 0 0.0 4.8 0.00 0.00 0.00 88 1012.8
20260906034041 22 40 1.6 4.8 0.00 0.00 0.00 88 1012.7
20260906033538 23 0 0.0 3.2 0.00 0.00 0.00 88 1012.9
20260906033051 22 26 0.0 4.8 0.00 0.00 0.00 89 1013.0
20260906032539 23 0 0.0 4.8 0.00 0.00 0.00 88 1013.1
20260906032038 23 25 0.0 6.4 0.00 0.00 0.00 89 1013.0
20260906031549 23 0 0.0 6.4 0.00 0.00 0.00 89 1013.1
20260906031038 23 0 0.0 4.8 0.00 0.00 0.00 89 1013.1
20260906030542 23 13 0.0 3.2 0.00 0.00 0.00 89 1013.1
20260906030120 23 0 0.0 3.2 0.00 0.00 0.00 90 1012.8
20260906025538 23 0 0.0 1.6 0.00 0.00 0.00 89 1013.0
20260906025040 23 0 0.0 1.6 0.00 0.00 0.00 90 1013.0
20260906024553 23 0 0.0 0.0 0.00 0.00 0.00 89 1012.9
20260906024038 23 0 0.0 0.0 0.00 0.00 0.00 89 1012.9
20260906023541 23 0 0.0 1.6 0.00 0.00 0.00 89 1012.8
20260906023053 23 0 0.0 3.2 0.00 0.00 0.00 89 1012.6
20260906022538 23 15 0.0 3.2 0.00 0.00 0.00 89 1012.7
20260906022038 23 0 0.0 3.2 0.00 0.00 0.00 89 1012.9
20260906021608 23 0 0.0 1.6 0.00 0.00 0.00 88 1013.0
20260906021038 23 0 0.0 0.0 0.00 0.00 0.00 88 1012.9
20260906020538 23 0 0.0 0.0 0.00 0.00 0.00 88 1012.9
20260906015537 24 0 0.0 1.6 0.00 0.00 0.00 87 1013.0
20260906015038 24 0 0.0 3.2 0.00 0.00 0.00 87 1013.2
20260906014553 24 0 0.0 3.2 0.00 0.00 0.00 87 1013.0
20260906014037 24 133 0.0 3.2 0.00 0.00 0.00 87 1012.9
20260906013537 24 0 0.0 1.6 0.00 0.00 0.00 86 1012.8
20260906013055 24 0 0.0 0.0 0.00 0.00 0.00 85 1012.9
20260906012540 25 0 0.0 0.0 0.00 0.00 0.00 84 1012.9
20260906012038 25 0 0.0 1.6 0.00 0.00 0.00 84 1012.9
20260906011556 25 0 0.0 1.6 0.00 0.00 0.00 84 1012.7
20260906011038 25 0 0.0 0.0 0.00 0.00 0.00 83 1012.8
20260906010537 25 0 0.0 0.0 0.00 0.00 0.00 83 1012.8
20260906010055 25 0 0.0 0.0 0.00 0.00 0.00 83 1012.9
20260906005538 25 0 0.0 0.0 0.00 0.00 0.00 83 1012.7
20260906005038 25 0 0.0 1.6 0.00 0.00 0.00 82 1012.7
20260906004549 25 0 0.0 1.6 0.00 0.00 0.00 82 1012.9
20260906004038 25 0 0.0 1.6 0.00 0.00 0.00 82 1012.9
20260906003538 26 0 0.0 3.2 0.00 0.00 0.00 82 1012.8
20260906003105 26 0 0.0 3.2 0.00 0.00 0.00 81 1012.8
20260906002537 26 0 0.0 3.2 0.00 0.00 0.00 81 1012.7
20260906002040 26 0 0.0 3.2 0.00 0.00 0.00 80 1012.5
20260906001555 26 0 0.0 3.2 0.00 0.00 0.00 81 1012.5
20260906001038 26 0 0.0 0.0 0.00 0.00 0.00 78 1012.5
20260906000540 26 0 0.0 0.0 0.00 0.00 0.00 78 1012.3
20260906000053 26 0 0.0 0.0 0.00 0.00 0.00 78 1012.3
20260905235537 27 0 0.0 0.0 0.00 0.00 0.00 78 1012.4
20260905235038 27 0 0.0 0.0 0.00 0.00 0.00 78 1012.2
20260905234555 27 0 0.0 0.0 0.00 0.00 0.00 76 1012.2
20260905234039 27 0 0.0 0.0 0.00 0.00 0.00 76 1012.2
20260905233538 27 0 0.0 0.0 0.00 0.00 0.00 76 1012.0
20260905233053 27 0 0.0 0.0 0.00 0.00 0.00 76 1012.0
20260905232538 27 0 0.0 0.0 0.00 0.00 0.00 75 1011.9
20260905232038 27 0 0.0 0.0 0.00 0.00 0.00 75 1011.6
20260905231553 27 0 0.0 0.0 0.00 0.00 0.00 75 1011.7
20260905231038 27 0 0.0 1.6 0.00 0.00 0.00 75 1011.4
20260905230537 27 0 0.0 1.6 0.00 0.00 0.00 74 1011.6
20260905230052 27 0 0.0 1.6 0.00 0.00 0.00 74 1011.5
20260905225537 27 0 0.0 1.6 0.00 0.00 0.00 74 1011.4
20260905225038 27 0 0.0 1.6 0.00 0.00 0.00 74 1011.4
20260905224554 27 0 0.0 1.6 0.00 0.00 0.00 74 1011.5
20260905224038 27 0 0.0 1.6 0.00 0.00 0.00 75 1011.6
20260905223537 27 0 0.0 4.8 0.00 0.00 0.00 75 1011.6
20260905223101 27 0 0.0 4.8 0.00 0.00 0.00 74 1011.5
20260905222537 27 312 0.0 1.6 0.00 0.00 0.00 76 1011.4
20260905222038 27 0 0.0 0.0 0.00 0.00 0.00 76 1011.4
20260905221553 27 0 0.0 0.0 0.00 0.00 0.00 76 1011.3
20260905221041 27 0 0.0 0.0 0.00 0.00 0.00 76 1011.4
20260905220540 27 0 0.0 0.0 0.00 0.00 0.00 76 1011.4
20260905220053 27 0 0.0 0.0 0.00 0.00 0.00 75 1011.3
20260905215537 27 0 0.0 1.6 0.00 0.00 0.00 76 1011.1
20260905215038 27 0 0.0 1.6 0.00 0.00 0.00 77 1011.3
20260905214613 27 0 0.0 1.6 0.00 0.00 0.00 75 1011.3
20260905214039 27 0 0.0 3.2 0.00 0.00 0.00 74 1011.5
20260905213538 28 0 0.0 3.2 0.00 0.00 0.00 74 1011.7
20260905213053 28 0 0.0 3.2 0.00 0.00 0.00 74 1011.8
20260905212538 28 0 0.0 1.6 0.00 0.00 0.00 73 1012.2
20260905212037 28 0 0.0 1.6 0.00 0.00 0.00 71 1012.4
20260905211554 28 0 0.0 4.8 0.00 0.00 0.00 69 1012.4
20260905211038 29 301 0.0 4.8 0.00 0.00 0.00 66 1012.4
20260905210540 29 245 0.0 4.8 0.00 0.00 0.00 65 1012.4
20260905210101 29 0 0.0 4.8 0.00 0.00 0.00 65 1012.5
20260905205538 29 0 0.0 8.0 0.00 0.00 0.00 65 1012.4
20260905205038 29 0 0.0 8.0 0.00 0.00 0.00 64 1012.3
20260905204556 29 262 1.6 8.0 0.00 0.00 0.00 65 1012.4
20260905204038 30 0 0.0 8.0 0.00 0.00 0.00 66 1012.3
20260905203540 30 124 0.0 4.8 0.00 0.00 0.00 64 1012.2
20260905203054 30 124 0.0 8.0 0.00 0.00 0.00 62 1012.2
20260905202537 30 339 3.2 12.9 0.00 0.00 0.00 61 1011.9
20260905202041 31 0 3.2 12.9 0.00 0.00 0.00 58 1011.6
20260905201551 31 304 3.2 11.3 0.00 0.00 0.00 58 1011.8
20260905201038 31 306 3.2 11.3 0.00 0.00 0.00 57 1011.3
20260905200537 32 354 3.2 14.5 0.00 0.00 0.00 58 1011.2
20260905200056 32 281 1.6 14.5 0.00 0.00 0.00 55 1010.9
20260905195540 33 292 3.2 16.1 0.00 0.00 0.00 56 1010.9
20260905195037 34 0 1.6 16.1 0.00 0.00 0.00 55 1011.0
20260905194552 35 335 4.8 16.1 0.00 0.00 0.00 49 1011.1
20260905194038 35 335 1.6 9.7 0.00 0.00 0.00 54 1011.2
20260905193537 35 141 0.0 9.7 0.00 0.00 0.00 52 1011.3
20260905193056 36 40 0.0 9.7 0.00 0.00 0.00 50 1011.4
20260905192538 36 360 3.2 9.7 0.00 0.00 0.00 48 1011.5
20260905192038 37 253 1.6 9.7 0.00 0.00 0.00 49 1011.6
20260905191551 36 0 3.2 8.0 0.00 0.00 0.00 51 1011.5
20260905191041 36 291 1.6 9.7 0.00 0.00 0.00 52 1011.5
20260905190538 36 273 1.6 9.7 0.00 0.00 0.00 49 1011.5
20260905190053 36 6 0.0 12.9 0.00 0.00 0.00 49 1011.7
20260905185537 36 57 4.8 12.9 0.00 0.00 0.00 49 1011.7
20260905185038 36 0 3.2 9.7 0.00 0.00 0.00 49 1011.7
20260905184604 36 345 1.6 8.0 0.00 0.00 0.00 50 1011.8
20260905184038 36 298 3.2 11.3 0.00 0.00 0.00 52 1011.8
20260905183540 36 360 3.2 11.3 0.00 0.00 0.00 48 1011.9
20260905183055 36 1 3.2 9.7 0.00 0.00 0.00 51 1012.0
20260905182541 36 340 1.6 9.7 0.00 0.00 0.00 50 1012.1
20260905182038 36 350 1.6 9.7 0.00 0.00 0.00 53 1012.1
20260905181550 36 152 4.8 9.7 0.00 0.00 0.00 51 1012.1
20260905181041 35 0 1.6 11.3 0.00 0.00 0.00 52 1012.2
20260905180538 35 292 4.8 11.3 0.00 0.00 0.00 51 1012.3
20260905180052 35 108 1.6 6.4 0.00 0.00 0.00 54 1012.4
20260905175538 35 0 1.6 11.3 0.00 0.00 0.00 51 1012.6
20260905175038 36 125 3.2 11.3 0.00 0.00 0.00 50 1012.7
20260905174558 36 0 1.6 8.0 0.00 0.00 0.00 51 1012.7
20260905174037 36 139 1.6 6.4 0.00 0.00 0.00 50 1012.9
20260905173538 36 0 0.0 6.4 0.00 0.00 0.00 56 1013.1
20260905173055 35 338 1.6 8.0 0.00 0.00 0.00 53 1013.1
20260905172540 35 44 1.6 8.0 0.00 0.00 0.00 57 1013.3
20260905172037 35 317 1.6 12.9 0.00 0.00 0.00 53 1013.4
20260905171546 35 295 1.6 12.9 0.00 0.00 0.00 51 1013.5
20260905171040 35 336 1.6 12.9 0.00 0.00 0.00 56 1013.4
20260905170538 34 359 1.6 12.9 0.00 0.00 0.00 55 1013.5
20260905170056 35 335 1.6 11.3 0.00 0.00 0.00 55 1013.4
20260905165537 35 359 1.6 8.0 0.00 0.00 0.00 58 1013.5
20260905165038 34 0 1.6 11.3 0.00 0.00 0.00 56 1013.6
20260905164553 34 20 3.2 11.3 0.00 0.00 0.00 57 1013.6
20260905164039 35 347 3.2 8.0 0.00 0.00 0.00 56 1013.6
20260905163537 34 0 1.6 9.7 0.00 0.00 0.00 55 1013.7
20260905163105 34 351 3.2 9.7 0.00 0.00 0.00 57 1013.8
20260905162539 34 309 1.6 11.3 0.00 0.00 0.00 58 1013.8
20260905162038 34 53 3.2 11.3 0.00 0.00 0.00 57 1013.9
20260905161555 34 0 1.6 11.3 0.00 0.00 0.00 59 1013.9
20260905161038 33 0 1.6 12.9 0.00 0.00 0.00 62 1013.9
20260905160537 33 115 3.2 12.9 0.00 0.00 0.00 60 1014.0
20260905160059 33 92 3.2 12.9 0.00 0.00 0.00 60 1014.1
20260905155541 33 195 1.6 6.4 0.00 0.00 0.00 60 1014.0
20260905155037 33 155 1.6 14.5 0.00 0.00 0.00 61 1014.3
20260905154604 33 199 1.6 14.5 0.00 0.00 0.00 63 1014.4
20260905154038 33 356 3.2 16.1 0.00 0.00 0.00 62 1014.4
20260905153537 32 23 4.8 16.1 0.00 0.00 0.00 62 1014.3
20260905153115 32 299 3.2 11.3 0.00 0.00 0.00 64 1014.3
20260905152538 32 13 4.8 11.3 0.00 0.00 0.00 63 1014.3
20260905152037 32 72 3.2 11.3 0.00 0.00 0.00 65 1014.3
20260905151604 31 30 3.2 11.3 0.00 0.00 0.00 66 1014.3
20260905151043 31 360 4.8 11.3 0.00 0.00 0.00 66 1014.2
20260905150538 31 98 3.2 11.3 0.00 0.00 0.00 66 1014.3
20260905150104 31 143 3.2 11.3 0.00 0.00 0.00 67 1014.4
20260905145538 31 143 3.2 11.3 0.00 0.00 0.00 68 1014.4
20260905145038 31 5 3.2 9.7 0.00 0.00 0.00 69 1014.4
20260905144559 31 186 3.2 9.7 0.00 0.00 0.00 68 1014.3
20260905144037 30 131 1.6 8.0 0.00 0.00 0.00 70 1014.3
20260905143538 30 143 3.2 8.0 0.00 0.00 0.00 69 1014.2
20260905143053 30 42 1.6 8.0 0.00 0.00 0.00 71 1014.3
20260905142538 30 335 3.2 9.7 0.00 0.00 0.00 72 1014.2
20260905142042 30 149 1.6 9.7 0.00 0.00 0.00 73 1014.3
20260905141612 29 68 1.6 8.0 0.00 0.00 0.00 74 1014.5
20260905141042 28 105 1.6 11.3 0.00 0.00 0.00 76 1014.5
20260905140542 28 46 3.2 11.3 0.00 0.00 0.00 76 1014.4
20260905140103 28 131 1.6 9.7 0.00 0.00 0.00 77 1014.5
20260905135537 28 130 1.6 9.7 0.00 0.00 0.00 78 1014.6
20260905135038 28 127 1.6 8.0 0.00 0.00 0.00 79 1014.6
20260905134605 28 0 1.6 6.4 0.00 0.00 0.00 80 1014.6
20260905134037 28 0 1.6 6.4 0.00 0.00 0.00 80 1014.6
20260905133538 27 0 0.0 6.4 0.00 0.00 0.00 83 1014.5
20260905133102 27 71 1.6 8.0 0.00 0.00 0.00 84 1014.6
20260905132538 26 0 1.6 12.9 0.00 0.00 0.00 84 1014.9
20260905132056 26 359 3.2 12.9 0.00 0.00 0.00 85 1014.6
20260905131600 26 57 3.2 9.7 0.00 0.00 0.00 86 1014.9
20260905131038 26 27 1.6 9.7 0.00 0.00 0.00 88 1014.9
20260905130538 26 72 0.0 4.8 0.00 0.00 0.00 89 1015.0
20260905130056 25 0 1.6 6.4 0.00 0.00 0.00 89 1014.8
20260905125537 25 101 1.6 6.4 0.00 0.00 0.00 90 1015.1
20260905125040 25 115 1.6 6.4 0.00 0.00 0.00 90 1014.9
20260905124551 25 184 1.6 4.8 0.00 0.00 0.00 91 1015.0
20260905124038 25 129 0.0 8.0 0.00 0.00 0.00 92 1014.9
20260905123540 25 0 0.0 8.0 0.00 0.00 0.00 92 1015.0
20260905123102 25 56 0.0 6.4 0.00 0.00 0.00 92 1015.1
20260905122538 25 106 0.0 6.4 0.00 0.00 0.00 93 1015.0
20260905122038 24 0 1.6 6.4 0.00 0.00 0.00 93 1014.9
20260905121556 24 0 1.6 4.8 0.00 0.00 0.00 93 1014.8
20260905121038 24 77 0.0 6.4 0.00 0.00 0.00 93 1015.0
20260905120544 24 326 1.6 6.4 0.00 0.00 0.00 93 1015.0
20260905120058 24 0 0.0 6.4 0.00 0.00 0.00 94 1015.0
20260905115543 24 137 0.0 4.8 0.00 0.00 0.00 94 1014.8
20260905115039 23 18 0.0 3.2 0.00 0.00 0.00 94 1014.9
20260905114623 23 0 0.0 3.2 0.00 0.00 0.00 94 1014.6
20260905114038 23 0 0.0 1.6 0.00 0.00 0.00 94 1014.7
20260905113538 23 0 0.0 3.2 0.00 0.00 0.00 93 1014.6
20260905113057 23 0 0.0 3.2 0.00 0.00 0.00 93 1014.5
20260905112538 23 0 0.0 3.2 0.00 0.00 0.00 93 1014.3
20260905112037 23 0 0.0 3.2 0.00 0.00 0.00 93 1014.1
20260905111554 23 0 0.0 3.2 0.00 0.00 0.00 93 1014.0
20260905111038 23 0 0.0 3.2 0.00 0.00 0.00 93 1014.2
20260905110539 23 0 0.0 3.2 0.00 0.00 0.00 93 1014.0
20260905110052 23 0 0.0 1.6 0.00 0.00 0.00 93 1014.0
20260905105538 23 0 0.0 1.6 0.00 0.00 0.00 92 1014.1
20260905105038 23 0 0.0 1.6 0.00 0.00 0.00 92 1013.9
20260905104548 23 0 0.0 3.2 0.00 0.00 0.00 92 1013.7
20260905104037 23 139 0.0 3.2 0.00 0.00 0.00 91 1013.6
20260905103537 23 0 0.0 3.2 0.00 0.00 0.00 91 1013.8
20260905103056 23 0 0.0 0.0 0.00 0.00 0.00 90 1013.7
20260905102537 24 0 0.0 0.0 0.00 0.00 0.00 90 1013.8
20260905102038 24 0 0.0 0.0 0.00 0.00 0.00 90 1013.8
20260905101622 24 0 0.0 0.0 0.00 0.00 0.00 90 1013.8
20260905101037 24 0 0.0 0.0 0.00 0.00 0.00 90 1013.9
20260905100537 24 0 0.0 0.0 0.00 0.00 0.00 90 1013.7
20260905100111 24 0 0.0 0.0 0.00 0.00 0.00 90 1013.6
20260905095537 24 0 0.0 0.0 0.00 0.00 0.00 90 1013.5
20260905095041 24 0 0.0 0.0 0.00 0.00 0.00 90 1013.5
20260905094604 24 0 0.0 0.0 0.00 0.00 0.00 90 1013.5
20260905094037 24 0 0.0 0.0 0.00 0.00 0.00 90 1013.6
20260905093538 25 0 0.0 0.0 0.00 0.00 0.00 89 1013.7
20260905093057 25 0 0.0 1.6 0.00 0.00 0.00 89 1013.6
20260905092539 25 0 0.0 1.6 0.00 0.00 0.00 89 1013.6
20260905092037 25 0 0.0 1.6 0.00 0.00 0.00 89 1013.6
20260905091600 25 0 0.0 1.6 0.00 0.00 0.00 89 1013.7
20260905091038 25 0 0.0 1.6 0.00 0.00 0.00 89 1013.8
20260905090537 25 0 0.0 3.2 0.00 0.00 0.00 90 1013.8
20260905090047 25 0 0.0 3.2 0.00 0.00 0.00 89 1013.8
20260905085538 25 0 0.0 3.2 0.00 0.00 0.00 90 1013.9
20260905085036 25 0 0.0 4.8 0.00 0.00 0.00 89 1013.8
20260905084554 25 124 0.0 4.8 0.00 0.00 0.00 89 1013.8
20260905084038 25 0 0.0 1.6 0.00 0.00 0.00 89 1013.8
20260905083540 25 0 0.0 3.2 0.00 0.00 0.00 89 1013.9